When you browse on this site, cookies collect data to enhance your experience and personalize the content and advertising you see.
Visit our Privacy Policy to learn more. By continuing to use the site, you agree to this use of cookies and data.
  • In Czech Republic
  • List of Countries
  • For 7 days
  • Water Temperature
  • Satellite Maps
  • Weather Map
  • Weather Widgets
  • user-avatar
    Login

    Hourly Weather Naryn

    Today, 17 January, Thursday

    Time Temperature Precipitation Wind Pressure Humidity
    00:00 -14°C° 0 mm 2 mps 561 mmHg 81%
    01:00 -14°C° 0 mm 2 mps 561 mmHg 81%
    02:00 -15°C° 0 mm 2 mps 561 mmHg 80%
    03:00 -15°C° 0 mm 2 mps 561 mmHg 79%
    04:00 -16°C° 0 mm 2 mps 561 mmHg 79%
    05:00 -17°C° 0 mm 3 mps 561 mmHg 78%
    06:00 -17°C° 0 mm 3 mps 561 mmHg 77%
    07:00 -17°C° 0 mm 3 mps 562 mmHg 77%
    08:00 -17°C° 0 mm 3 mps 562 mmHg 76%
    09:00 -14°C° 0 mm 2 mps 563 mmHg 77%
    10:00 -13°C° 0 mm 2 mps 563 mmHg 77%
    11:00 -9°C° 0 mm 1 mps 564 mmHg 78%
    12:00 -8°C° 0 mm 1 mps 564 mmHg 78%
    13:00 -8°C° 0 mm 1 mps 563 mmHg 79%
    14:00 -8°C° 0 mm 1 mps 563 mmHg 79%
    15:00 -9°C° 0 mm 1 mps 563 mmHg 78%
    16:00 -13°C° 0 mm 2 mps 562 mmHg 78%
    17:00 -14°C° 0 mm 2 mps 562 mmHg 77%
    18:00 -15°C° 0 mm 2 mps 562 mmHg 73%
    19:00 -16°C° 0 mm 3 mps 562 mmHg 70%
    20:00 -17°C° 0 mm 3 mps 562 mmHg 66%
    21:00 -17°C° 0 mm 3 mps 562 mmHg 63%
    22:00 -17°C° 0 mm 3 mps 562 mmHg 59%
    23:00 -18°C° 0 mm 3 mps 561 mmHg 56%

    Tomorrow, 18 January, Friday

    Time Temperature Precipitation Wind Pressure Humidity
    00:00 -18°C° 0 mm 3 mps 561 mmHg 54%
    01:00 -18°C° 0 mm 3 mps 561 mmHg 51%
    02:00 -19°C° 0 mm 3 mps 560 mmHg 49%
    03:00 -19°C° 0 mm 3 mps 560 mmHg 49%
    04:00 -19°C° 0 mm 3 mps 560 mmHg 48%
    05:00 -19°C° 0 mm 3 mps 560 mmHg 47%
    06:00 -19°C° 0 mm 3 mps 560 mmHg 47%
    07:00 -19°C° 0 mm 3 mps 560 mmHg 47%
    08:00 -19°C° 0 mm 3 mps 560 mmHg 47%
    09:00 -17°C° 0 mm 3 mps 561 mmHg 52%
    10:00 -15°C° 0 mm 3 mps 561 mmHg 57%
    11:00 -12°C° 0 mm 2 mps 561 mmHg 61%
    12:00 -10°C° 0 mm 2 mps 561 mmHg 62%
    13:00 -9°C° 0 mm 2 mps 561 mmHg 62%
    14:00 -9°C° 0 mm 2 mps 560 mmHg 62%
    15:00 -10°C° 0 mm 2 mps 560 mmHg 56%
    16:00 -13°C° 0 mm 3 mps 559 mmHg 50%
    17:00 -15°C° 0 mm 3 mps 559 mmHg 44%
    18:00 -15°C° 0 mm 3 mps 559 mmHg 40%
    19:00 -16°C° 0 mm 4 mps 559 mmHg 36%
    20:00 -17°C° 0 mm 4 mps 559 mmHg 32%
    21:00 -16°C° 0 mm 3 mps 559 mmHg 30%
    22:00 -15°C° 0 mm 3 mps 559 mmHg 27%
    23:00 -15°C° 0 mm 3 mps 559 mmHg 25%

    Day after tomorrow, 19 January, Saturday

    Time Temperature Precipitation Wind Pressure Humidity
    00:00 -15°C° 0 mm 3 mps 559 mmHg 25%
    01:00 -15°C° 0 mm 3 mps 559 mmHg 25%
    02:00 -14°C° 0 mm 3 mps 559 mmHg 25%
    03:00 -14°C° 0 mm 3 mps 559 mmHg 26%
    04:00 -13°C° 0 mm 2 mps 560 mmHg 28%
    05:00 -13°C° 0 mm 2 mps 560 mmHg 29%
    06:00 -13°C° 0 mm 2 mps 560 mmHg 31%
    07:00 -13°C° 0 mm 2 mps 561 mmHg 33%
    08:00 -12°C° 0 mm 2 mps 561 mmHg 34%
    09:00 -10°C° 0 mm 2 mps 562 mmHg 40%
    10:00 -8°C° 0 mm 2 mps 563 mmHg 46%
    11:00 -7°C° 0 mm 2 mps 564 mmHg 51%
    12:00 -6°C° 0 mm 2 mps 564 mmHg 54%
    13:00 -3°C° 0 mm 1 mps 564 mmHg 57%
    14:00 -2°C° 0 mm 1 mps 565 mmHg 61%
    15:00 -5°C° 0 mm 2 mps 565 mmHg 60%
    16:00 -6°C° 0 mm 2 mps 565 mmHg 59%
    17:00 -7°C° 0 mm 2 mps 565 mmHg 57%
    18:00 -8°C° 0 mm 3 mps 565 mmHg 61%
    19:00 -9°C° 0 mm 3 mps 566 mmHg 64%
    20:00 -10°C° 0 mm 4 mps 566 mmHg 67%
    21:00 -11°C° 0 mm 4 mps 566 mmHg 68%
    22:00 -12°C° 0 mm 4 mps 565 mmHg 68%
    23:00 -12°C° 0 mm 4 mps 565 mmHg 69%

    20 January, Sunday

    Time Temperature Precipitation Wind Pressure Humidity
    00:00 -14°C° 0 mm 4 mps 565 mmHg 69%
    01:00 -15°C° 0 mm 5 mps 564 mmHg 69%
    02:00 -17°C° 0 mm 5 mps 564 mmHg 69%
    03:00 -17°C° 0 mm 5 mps 564 mmHg 69%
    04:00 -17°C° 0 mm 5 mps 564 mmHg 69%
    05:00 -17°C° 0 mm 5 mps 564 mmHg 69%
    06:00 -17°C° 0 mm 5 mps 564 mmHg 69%
    07:00 -17°C° 0 mm 5 mps 564 mmHg 69%
    08:00 -17°C° 0 mm 5 mps 564 mmHg 69%
    09:00 -14°C° 0 mm 4 mps 564 mmHg 70%
    10:00 -11°C° 0 mm 4 mps 565 mmHg 71%
    11:00 -8°C° 0 mm 3 mps 565 mmHg 72%
    12:00 -8°C° 0 mm 3 mps 565 mmHg 72%
    13:00 -7°C° 0 mm 3 mps 564 mmHg 71%
    14:00 -6°C° 0 mm 3 mps 564 mmHg 71%
    15:00 -7°C° 0 mm 3 mps 564 mmHg 70%
    16:00 -9°C° 0 mm 3 mps 563 mmHg 69%
    17:00 -11°C° 0 mm 4 mps 563 mmHg 68%
    18:00 -12°C° 0 mm 4 mps 563 mmHg 67%
    19:00 -14°C° 0 mm 4 mps 563 mmHg 67%
    20:00 -15°C° 0 mm 4 mps 563 mmHg 66%
    21:00 -16°C° 0 mm 4 mps 562 mmHg 67%
    22:00 -16°C° 0 mm 4 mps 562 mmHg 68%
    23:00 -16°C° 0 mm 4 mps 562 mmHg 68%

    21 January, Monday

    Time Temperature Precipitation Wind Pressure Humidity
    00:00 -15°C° 0 mm 4 mps 563 mmHg 68%
    01:00 -14°C° 0 mm 3 mps 563 mmHg 69%
    02:00 -14°C° 0 mm 3 mps 563 mmHg 69%
    03:00 -14°C° 0 mm 3 mps 562 mmHg 68%
    04:00 -15°C° 0 mm 3 mps 562 mmHg 66%
    05:00 -15°C° 0 mm 3 mps 562 mmHg 65%
    06:00 -15°C° 0 mm 3 mps 562 mmHg 65%
    07:00 -14°C° 0 mm 2 mps 562 mmHg 65%
    08:00 -14°C° 0 mm 2 mps 562 mmHg 65%
    09:00 -13°C° 0 mm 2 mps 563 mmHg 67%
    10:00 -9°C° 0 mm 1 mps 564 mmHg 69%
    11:00 -8°C° 0 mm 1 mps 564 mmHg 71%
    12:00 -7°C° 0 mm 1 mps 564 mmHg 71%
    13:00 -7°C° 0 mm 1 mps 563 mmHg 72%
    14:00 -6°C° 0 mm 0 mps 563 mmHg 72%
    15:00 -7°C° 0 mm 1 mps 563 mmHg 71%
    16:00 -9°C° 0 mm 1 mps 562 mmHg 70%
    17:00 -10°C° 0 mm 1 mps 562 mmHg 69%
    18:00 -10°C° 0 mm 1 mps 562 mmHg 69%
    19:00 -12°C° 0 mm 2 mps 563 mmHg 68%
    20:00 -12°C° 0 mm 2 mps 563 mmHg 68%
    21:00 -13°C° 0 mm 2 mps 563 mmHg 67%
    22:00 -13°C° 0 mm 2 mps 562 mmHg 66%
    23:00 -15°C° 0 mm 3 mps 562 mmHg 66%

    22 January, Tuesday

    Time Temperature Precipitation Wind Pressure Humidity
    00:00 -15°C° 0 mm 3 mps 561 mmHg 65%
    01:00 -15°C° 0 mm 3 mps 561 mmHg 64%
    02:00 -15°C° 0 mm 3 mps 561 mmHg 63%
    03:00 -15°C° 0 mm 3 mps 561 mmHg 63%
    04:00 -15°C° 0 mm 3 mps 561 mmHg 64%
    05:00 -15°C° 0 mm 3 mps 561 mmHg 64%
    06:00 -15°C° 0 mm 3 mps 561 mmHg 64%
    07:00 -15°C° 0 mm 3 mps 561 mmHg 64%
    08:00 -15°C° 0 mm 3 mps 561 mmHg 64%
    09:00 -13°C° 0 mm 2 mps 561 mmHg 67%
    10:00 -10°C° 0 mm 2 mps 562 mmHg 70%
    11:00 -8°C° 0 mm 2 mps 562 mmHg 72%
    12:00 -6°C° 0 mm 1 mps 562 mmHg 72%
    13:00 -6°C° 0 mm 1 mps 562 mmHg 72%
    14:00 -4°C° 0 mm 1 mps 562 mmHg 71%
    15:00 -7°C° 0 mm 1 mps 561 mmHg 70%
    16:00 -8°C° 0 mm 1 mps 561 mmHg 68%
    17:00 -10°C° 0 mm 2 mps 560 mmHg 66%
    18:00 -12°C° 0 mm 2 mps 560 mmHg 66%
    19:00 -12°C° 0 mm 2 mps 561 mmHg 66%
    20:00 -14°C° 0 mm 3 mps 561 mmHg 66%
    21:00 -14°C° 0 mm 3 mps 561 mmHg 66%
    22:00 -14°C° 0 mm 3 mps 560 mmHg 66%
    23:00 -15°C° 0 mm 3 mps 560 mmHg 66%
    Show more